SCP
0 0 0 0 0 0 0 0 0 0 0 0 0 0 0 0 0 0 0 0 0 0 0 0 0 0 0 0 0 0 0 1 1 1 1 1 1 1
0 0 0 0 0 0 0 0 0 0 0 0 0 0 0 0 0 0 0 0 0 0 0 0 0 0 0 0 0 0 0 0 0 0 1 1 1 1
0 0 0 0 0 0 0 0 0 0 0 0 0 0 0 0 0 0 0 0 0 0 0 0 0 0 0 0 0 0 0 0 0 0 0 0 0 0
0 0 0 0 0 0 -0 -0 0 0 0 0 0 0 0 0 0 -0 -0 0 0 -0 0 0 0 0 0 0 0 0 0 0 0 0 0 0 0 0
0 0 0 0 0 0 0 0 0 0 0 -0 0 0 0 0 0 0 -0 0 0 -0 -0 -0 -0 0 0 0 0 0 0 0 0 0 0 0 0 0
0 0 0 0 0 0 0 0 0 0 0 -0 0 0 0 -0 -0 0 -0 -0 -0 -0 -0 -0 -0 -0 -0 0 0 0 0 0 0 0 0 0 0 0
0 0 0 0 0 -0 0 0 0 0 -0 -0 0 0 0 -0 -0 0 0 0 0 -0 0 0 0 0 0 0 0 0 0 0 0 0 0 0 0 0
0 0 0 0 0 0 -0 0 0 0 -0 -0 0 0 0 0 0 0 -0 0 0 -0 0 -0 0 -0 0 0 -0 0 0 0 0 0 0 0 0 0
0 0 0 0 0 0 0 -0 0 0 0 0 0 0 -0 -0 -0 -0 -0 -0 -0 0 0 -0 0 -0 -0 -0 -0 -0 0 0 0 0 0 0 0 0
0 0 0 0 0 0 0 0 0 0 0 0 0 0 0 0 0 0 0 -0 -0 0 0 0 0 0 -0 0 -0 -0 -0 -0 0 0 0 0 0 0
0 0 0 0 0 0 0 0 0 0 0 -0 0 0 0 0 0 0 0 0 0 0 0 0 0 0 0 0 0 -0 -0 -0 -0 0 0 0 0 0
0 0 0 0 0 0 0 0 0 0 0 0 0 0 0 0 0 -0 0 0 0 0 0 0 0 0 0 0 0 0 0 -0 -0 -0 -0 -0 0 0
0 0 0 0 0 0 0 0 0 0 0 0 0 0 0 0 0 0 0 0 0 -0 -0 0 0 0 0 0 0 0 0 0 0 0 0 0 0 0
0 0 0 0 0 0 0 0 0 0 0 0 0 0 0 0 0 0 0 0 0 0 0 0 -0 -0 -0 0 0 0 0 0 0 0 0 0 0 0
0 0 0 0 0 0 0 0 0 0 0 0 0 0 0 0 0 0 0 0 -0 -0 -0 0 -0 -0 -0 -0 -0 0 0 0 0 0 0 0 0 0
0 0 0 0 0 0 0 0 0 0 0 0 0 0 0 0 0 0 0 0 0 0 0 -0 0 0 0 -0 -0 -0 0 0 0 0 0 0 0 0
0 0 0 0 0 0 0 0 0 0 0 0 0 0 0 0 0 0 0 0 0 0 0 0 0 0 0 0 0 0 0 0 0 0 0 0 0 0
0 0 0 0 0 0 0 0 0 0 0 0 0 0 0 0 0 0 0 0 0 0 0 0 0 0 0 0 0 0 0 0 0 0 0 0 0 0
0 0 0 0 0 0 0 0 0 0 -0 0 0 0 0 0 -0 0 0 0 0 0 0 0 0 0 0 0 0 0 0 0 0 0 0 0 0 0
0 0 0 0 0 0 -0 0 0 0 0 0 0 0 -0 0 0 0 0 0 0 0 0 0 0 0 0 0 0 0 0 0 0 0 0 0 0 0
0 0 0 0 0 0 0 0 0 0 0 0 -0 -0 -0 -0 -0 0 0 0 0 0 0 0 0 0 0 0 0 0 0 0 0 0 0 0 0 0
0 0 0 0 0 0 0 0 0 0 0 0 0 0 0 -0 0 0 0 0 0 0 0 0 0 0 0 0 0 0 0 0 0 0 0 0 0 0
0 0 -0 -0 0 0 0 0 0 0 0 0 0 0 0 0 -0 -0 -0 0 0 0 0 0 -0 0 0 0 0 0 0 0 0 0 0 0 0 0
Wind_Speed_500mb
33 33 21 11 4 8 7 7 7 4 3 10 15 19 19 13 13 13 16 13 22 23 30 39 40 48 52 47 59 63 63 63 63 60 57 51 49 45
33 33 27 20 12 3 2 5 4 6 7 7 14 17 17 15 14 16 18 18 17 21 33 40 35 46 49 50 57 61 70 70 66 61 56 52 51 48
27 27 25 20 18 13 8 4 1 3 12 9 4 11 13 8 13 17 17 14 19 24 24 29 37 35 40 53 53 56 52 61 65 58 57 53 52 50
29 28 27 22 20 12 11 11 8 7 5 0 5 9 14 22 22 14 7 11 17 24 26 28 34 38 40 43 52 55 59 60 60 58 55 53 51 51
33 36 33 27 27 22 14 11 13 12 8 8 11 9 12 15 23 30 26 22 19 20 18 24 30 32 37 41 51 58 57 58 58 53 49 49 50 52
30 29 37 33 30 26 17 14 11 11 12 8 9 4 8 8 7 9 19 31 31 22 14 12 10 16 25 33 45 52 52 51 49 49 47 45 46 48
38 33 32 33 32 27 21 15 10 11 11 11 8 9 3 6 11 11 11 10 28 34 25 11 7 6 4 8 30 40 40 46 49 47 44 43 45 45
44 34 33 40 40 32 25 17 14 15 13 15 15 15 19 19 17 23 16 9 6 27 42 35 31 27 25 18 14 39 37 40 44 47 42 42 38 39
45 34 28 31 33 34 39 28 11 6 7 9 13 10 24 31 29 32 29 27 26 24 32 47 52 42 34 35 26 23 36 36 41 38 35 36 36 37
45 48 38 31 26 27 35 41 40 35 29 23 18 20 20 24 26 34 35 39 42 40 34 45 46 55 45 33 31 25 29 33 36 37 33 31 31 35
37 42 40 25 27 30 32 34 40 43 39 37 32 25 28 26 22 21 18 18 23 27 32 31 33 43 53 50 34 23 24 34 29 27 25 22 27 34
33 35 29 26 23 24 25 26 26 26 26 25 26 24 13 9 10 11 14 17 8 13 25 22 18 18 42 42 45 41 30 34 36 34 35 31 41 48
29 29 22 17 18 20 21 22 26 22 18 17 19 19 18 18 16 7 12 15 15 15 17 22 27 9 24 36 40 36 41 54 59 65 64 56 67 74
31 33 30 19 8 8 10 15 22 29 14 14 20 21 22 22 28 30 7 3 7 14 13 18 27 27 31 38 38 34 34 32 38 42 46 45 44 38
36 35 27 30 10 3 5 6 6 14 16 13 15 13 18 17 15 28 33 9 8 19 17 21 19 24 27 37 42 38 34 34 34 32 35 36 32 32
34 31 27 23 8 5 4 4 1 6 11 16 20 14 10 13 11 12 25 27 15 17 17 18 9 17 23 24 32 37 32 27 32 30 36 38 32 27
35 33 24 15 15 7 1 4 1 4 6 8 18 5 6 8 7 0 9 17 20 21 19 16 16 14 16 20 19 19 25 29 32 37 35 32 28 24
39 30 25 16 14 11 9 6 4 9 11 17 12 9 7 10 8 7 7 3 13 23 15 15 14 12 8 8 8 16 16 16 16 15 13 12 13 21
39 31 23 23 19 14 12 9 8 16 8 12 2 2 6 8 10 13 8 10 12 3 5 10 19 18 16 14 17 13 13 14 12 15 12 9 3 7
43 33 23 20 22 13 12 8 8 8 6 1 2 3 3 9 5 5 1 5 8 11 16 12 6 13 17 16 20 22 16 11 24 21 13 5 5 12
36 28 29 25 25 19 18 19 13 6 7 9 9 8 6 8 5 3 8 8 6 5 14 11 15 11 5 14 6 24 22 21 21 21 14 14 13 9
32 38 36 29 26 15 15 18 23 20 12 13 15 11 11 15 7 7 6 10 8 9 10 17 17 15 15 14 8 4 10 24 30 27 23 21 17 8
28 33 40 24 28 29 15 23 26 24 24 21 19 21 17 10 11 5 1 2 5 11 4 22 19 19 16 10 8 14 16 17 15 10 11 17 20 19
Wind_Direction_500mb
16 22 29 15 309 281 231 251 274 286 333 263 309 324 321 299 291 312 317 320 280 262 261 245 238 231 227 230 215 220 220 224 230 234 237 240 245 242
34 40 44 41 41 21 252 237 229 248 236 236 306 327 323 300 287 300 291 275 290 294 252 240 232 226 224 225 222 224 230 226 227 231 236 241 241 235
35 34 32 40 39 45 61 115 147 189 230 232 343 358 341 317 310 305 289 267 277 286 280 257 247 235 231 228 224 225 224 223 225 230 236 236 234 232
32 29 34 32 33 49 72 68 68 76 94 40 98 53 68 54 46 30 348 284 279 283 279 280 251 236 228 226 230 231 225 224 228 228 230 229 227 226
33 43 48 51 45 49 74 59 74 63 60 73 92 111 91 70 54 51 48 36 24 353 299 281 279 245 232 229 227 226 224 221 222 221 221 222 223 220
36 34 45 51 54 56 60 73 71 48 36 17 27 307 235 283 344 19 47 44 29 7 347 298 286 265 242 236 226 221 219 217 211 207 211 213 213 212
48 58 55 50 49 49 52 57 45 41 49 55 55 90 101 293 349 337 328 18 35 39 46 95 142 119 193 215 209 206 206 200 197 203 204 204 202 204
43 50 54 50 44 45 43 47 68 87 87 79 80 65 56 66 59 53 58 23 29 45 52 57 80 87 88 94 178 189 186 190 194 194 196 194 194 197
36 33 35 27 27 39 41 45 50 36 32 49 64 75 90 84 67 56 55 52 58 62 56 57 62 74 76 81 79 142 178 179 181 184 187 188 190 191
27 25 21 23 46 65 60 59 65 71 69 59 63 77 94 87 72 58 66 69 64 61 56 58 64 70 71 88 94 105 144 161 171 175 179 184 186 182
23 19 23 45 56 54 59 61 60 65 69 69 70 74 89 72 59 47 42 42 44 38 32 41 54 68 76 75 82 121 139 150 159 163 164 172 164 158
12 13 20 30 35 34 31 30 37 40 51 62 66 69 69 45 19 31 20 354 311 3 21 29 37 65 66 82 93 105 126 166 173 169 173 171 175 178
8 12 17 11 2 358 14 20 17 7 7 29 49 48 54 35 31 1 18 30 55 59 54 57 47 76 112 94 89 100 112 122 134 139 145 159 165 164
351 357 347 343 345 348 356 12 10 5 9 51 57 72 66 55 49 46 55 117 93 57 69 75 78 67 103 103 97 99 98 114 124 128 135 140 141 140
339 343 342 343 285 46 0 7 30 359 345 339 27 22 48 44 36 45 49 65 148 107 82 78 65 74 78 92 100 91 114 101 104 119 124 123 132 155
328 332 336 343 308 265 339 59 15 30 3 342 328 329 335 22 17 29 47 43 134 132 120 110 100 63 101 98 92 101 89 119 110 109 105 106 110 112
331 337 332 352 345 284 244 79 126 24 64 338 319 235 4 5 337 320 67 65 86 123 123 119 123 98 88 95 116 105 116 118 113 121 118 119 121 122
324 330 345 347 343 279 257 173 352 324 329 346 4 164 150 40 93 35 351 10 72 89 115 139 145 152 137 141 150 118 136 144 138 152 150 139 138 127
333 325 333 337 322 283 258 244 288 330 258 344 351 94 159 78 87 94 4 269 315 280 120 117 144 160 172 163 150 171 151 149 167 186 196 203 203 175
343 331 323 333 325 293 243 216 272 299 182 95 26 43 140 61 101 103 153 205 323 287 267 269 273 238 240 210 189 184 196 178 164 148 168 205 111 160
327 302 314 312 315 277 230 222 241 224 233 215 248 253 265 284 272 319 359 66 38 276 222 223 146 109 79 198 164 189 194 187 184 174 162 170 189 227
310 314 304 302 316 289 239 229 236 230 208 236 251 282 288 286 263 335 174 187 258 314 214 206 214 217 241 244 273 101 164 189 187 186 198 207 215 225
317 308 309 290 294 290 269 246 226 232 241 240 238 281 281 290 292 321 195 325 325 314 38 122 140 168 183 206 235 162 147 131 126 144 172 190 201 199
Wind_Speed_850mb
33 33 21 11 4 8 7 7 7 4 3 10 15 19 19 13 13 13 16 13 22 23 30 39 40 48 52 47 59 63 63 63 63 60 57 51 49 45
33 33 27 20 12 3 2 5 4 6 7 7 14 17 17 15 14 16 18 18 17 21 33 40 35 46 49 50 57 61 70 70 66 61 56 52 51 48
27 27 25 20 18 13 8 4 1 3 12 9 4 11 13 8 13 17 17 14 19 24 24 29 37 35 40 53 53 56 52 61 65 58 57 53 52 50
29 28 27 22 20 12 11 11 8 7 5 0 5 9 14 22 22 14 7 11 17 24 26 28 34 38 40 43 52 55 59 60 60 58 55 53 51 51
33 36 33 27 27 22 14 11 13 12 8 8 11 9 12 15 23 30 26 22 19 20 18 24 30 32 37 41 51 58 57 58 58 53 49 49 50 52
30 29 37 33 30 26 17 14 11 11 12 8 9 4 8 8 7 9 19 31 31 22 14 12 10 16 25 33 45 52 52 51 49 49 47 45 46 48
38 33 32 33 32 27 21 15 10 11 11 11 8 9 3 6 11 11 11 10 28 34 25 11 7 6 4 8 30 40 40 46 49 47 44 43 45 45
44 34 33 40 40 32 25 17 14 15 13 15 15 15 19 19 17 23 16 9 6 27 42 35 31 27 25 18 14 39 37 40 44 47 42 42 38 39
45 34 28 31 33 34 39 28 11 6 7 9 13 10 24 31 29 32 29 27 26 24 32 47 52 42 34 35 26 23 36 36 41 38 35 36 36 37
45 48 38 31 26 27 35 41 40 35 29 23 18 20 20 24 26 34 35 39 42 40 34 45 46 55 45 33 31 25 29 33 36 37 33 31 31 35
37 42 40 25 27 30 32 34 40 43 39 37 32 25 28 26 22 21 18 18 23 27 32 31 33 43 53 50 34 23 24 34 29 27 25 22 27 34
33 35 29 26 23 24 25 26 26 26 26 25 26 24 13 9 10 11 14 17 8 13 25 22 18 18 42 42 45 41 30 34 36 34 35 31 41 48
29 29 22 17 18 20 21 22 26 22 18 17 19 19 18 18 16 7 12 15 15 15 17 22 27 9 24 36 40 36 41 54 59 65 64 56 67 74
31 33 30 19 8 8 10 15 22 29 14 14 20 21 22 22 28 30 7 3 7 14 13 18 27 27 31 38 38 34 34 32 38 42 46 45 44 38
36 35 27 30 10 3 5 6 6 14 16 13 15 13 18 17 15 28 33 9 8 19 17 21 19 24 27 37 42 38 34 34 34 32 35 36 32 32
34 31 27 23 8 5 4 4 1 6 11 16 20 14 10 13 11 12 25 27 15 17 17 18 9 17 23 24 32 37 32 27 32 30 36 38 32 27
35 33 24 15 15 7 1 4 1 4 6 8 18 5 6 8 7 0 9 17 20 21 19 16 16 14 16 20 19 19 25 29 32 37 35 32 28 24
39 30 25 16 14 11 9 6 4 9 11 17 12 9 7 10 8 7 7 3 13 23 15 15 14 12 8 8 8 16 16 16 16 15 13 12 13 21
39 31 23 23 19 14 12 9 8 16 8 12 2 2 6 8 10 13 8 10 12 3 5 10 19 18 16 14 17 13 13 14 12 15 12 9 3 7
43 33 23 20 22 13 12 8 8 8 6 1 2 3 3 9 5 5 1 5 8 11 16 12 6 13 17 16 20 22 16 11 24 21 13 5 5 12
36 28 29 25 25 19 18 19 13 6 7 9 9 8 6 8 5 3 8 8 6 5 14 11 15 11 5 14 6 24 22 21 21 21 14 14 13 9
32 38 36 29 26 15 15 18 23 20 12 13 15 11 11 15 7 7 6 10 8 9 10 17 17 15 15 14 8 4 10 24 30 27 23 21 17 8
28 33 40 24 28 29 15 23 26 24 24 21 19 21 17 10 11 5 1 2 5 11 4 22 19 19 16 10 8 14 16 17 15 10 11 17 20 19
Wind_Direction_850mb
16 22 29 15 309 281 231 251 274 286 333 263 309 324 321 299 291 312 317 320 280 262 261 245 238 231 227 230 215 220 220 224 230 234 237 240 245 242
34 40 44 41 41 21 252 237 229 248 236 236 306 327 323 300 287 300 291 275 290 294 252 240 232 226 224 225 222 224 230 226 227 231 236 241 241 235
35 34 32 40 39 45 61 115 147 189 230 232 343 358 341 317 310 305 289 267 277 286 280 257 247 235 231 228 224 225 224 223 225 230 236 236 234 232
32 29 34 32 33 49 72 68 68 76 94 40 98 53 68 54 46 30 348 284 279 283 279 280 251 236 228 226 230 231 225 224 228 228 230 229 227 226
33 43 48 51 45 49 74 59 74 63 60 73 92 111 91 70 54 51 48 36 24 353 299 281 279 245 232 229 227 226 224 221 222 221 221 222 223 220
36 34 45 51 54 56 60 73 71 48 36 17 27 307 235 283 344 19 47 44 29 7 347 298 286 265 242 236 226 221 219 217 211 207 211 213 213 212
48 58 55 50 49 49 52 57 45 41 49 55 55 90 101 293 349 337 328 18 35 39 46 95 142 119 193 215 209 206 206 200 197 203 204 204 202 204
43 50 54 50 44 45 43 47 68 87 87 79 80 65 56 66 59 53 58 23 29 45 52 57 80 87 88 94 178 189 186 190 194 194 196 194 194 197
36 33 35 27 27 39 41 45 50 36 32 49 64 75 90 84 67 56 55 52 58 62 56 57 62 74 76 81 79 142 178 179 181 184 187 188 190 191
27 25 21 23 46 65 60 59 65 71 69 59 63 77 94 87 72 58 66 69 64 61 56 58 64 70 71 88 94 105 144 161 171 175 179 184 186 182
23 19 23 45 56 54 59 61 60 65 69 69 70 74 89 72 59 47 42 42 44 38 32 41 54 68 76 75 82 121 139 150 159 163 164 172 164 158
12 13 20 30 35 34 31 30 37 40 51 62 66 69 69 45 19 31 20 354 311 3 21 29 37 65 66 82 93 105 126 166 173 169 173 171 175 178
8 12 17 11 2 358 14 20 17 7 7 29 49 48 54 35 31 1 18 30 55 59 54 57 47 76 112 94 89 100 112 122 134 139 145 159 165 164
351 357 347 343 345 348 356 12 10 5 9 51 57 72 66 55 49 46 55 117 93 57 69 75 78 67 103 103 97 99 98 114 124 128 135 140 141 140
339 343 342 343 285 46 0 7 30 359 345 339 27 22 48 44 36 45 49 65 148 107 82 78 65 74 78 92 100 91 114 101 104 119 124 123 132 155
328 332 336 343 308 265 339 59 15 30 3 342 328 329 335 22 17 29 47 43 134 132 120 110 100 63 101 98 92 101 89 119 110 109 105 106 110 112
331 337 332 352 345 284 244 79 126 24 64 338 319 235 4 5 337 320 67 65 86 123 123 119 123 98 88 95 116 105 116 118 113 121 118 119 121 122
324 330 345 347 343 279 257 173 352 324 329 346 4 164 150 40 93 35 351 10 72 89 115 139 145 152 137 141 150 118 136 144 138 152 150 139 138 127
333 325 333 337 322 283 258 244 288 330 258 344 351 94 159 78 87 94 4 269 315 280 120 117 144 160 172 163 150 171 151 149 167 186 196 203 203 175
343 331 323 333 325 293 243 216 272 299 182 95 26 43 140 61 101 103 153 205 323 287 267 269 273 238 240 210 189 184 196 178 164 148 168 205 111 160
327 302 314 312 315 277 230 222 241 224 233 215 248 253 265 284 272 319 359 66 38 276 222 223 146 109 79 198 164 189 194 187 184 174 162 170 189 227
310 314 304 302 316 289 239 229 236 230 208 236 251 282 288 286 263 335 174 187 258 314 214 206 214 217 241 244 273 101 164 189 187 186 198 207 215 225
317 308 309 290 294 290 269 246 226 232 241 240 238 281 281 290 292 321 195 325 325 314 38 122 140 168 183 206 235 162 147 131 126 144 172 190 201 199